[[{"header":{"parameterUnit":"m.s-1","parameterCategory":1,"la1":30.2991,"la2":30.254,"lo1":-89.0895,"lo2":-89.0444,"dy":0.0017,"dx":0.0017,"nx":28,"ny":28,"refTime":"2023-08-08T03:00:00:Z","depth":0,"parameterNumber":2,"parameterNumberName":"U-component_of_WINDS"},"data":[0,0,0,0,0,0,0,0,0,0,0,0,0,0,0,0,0,0,0,0,0,0,0,0,0,0,0,0,0,0,0,0,0,0,0,0,0,0,0,0,0,0,0,0,0,0,0,0,0,0,0,0,0,0,0,0,0,0,1.8837,1.8837,0,1.8876,1.8876,1.8876,1.8873,1.8872,1.8871,1.8871,1.8914,1.8916,1.8917,0,0,0,0,0,0,0,0,0,0,0,0,0,1.8764,1.8765,1.8837,1.8837,1.8838,1.8875,1.8876,1.8877,1.8873,1.8872,1.8871,1.8871,1.8914,1.8916,1.8918,0,0,0,0,0,0,0,0,0,0,0,0,0,1.8798,1.8766,1.8837,1.884,1.8841,1.8875,1.8876,1.8877,1.8873,1.8872,1.8871,1.887,1.8913,1.8915,1.8918,1.8952,0,0,1.8926,1.8927,0,0,0,0,0,0,0,0,1.8796,1.8801,1.8839,1.884,1.8841,1.8868,1.8866,1.8902,1.8873,1.8861,1.8871,1.887,1.89,1.8903,1.8913,1.8954,1.8956,1.8926,1.8928,1.8929,1.8929,0,0,0,0,0,0,0,1.8794,1.8799,1.8852,1.884,1.8841,1.8841,1.8845,1.8873,1.8885,1.8862,1.8862,1.8866,1.89,1.891,1.8914,1.8957,1.8926,1.8928,1.893,1.8931,1.9029,1.9029,0,0,0,0,0,0,1.879,1.8797,1.8851,1.8853,1.8816,1.8843,1.8848,1.8861,1.8885,1.8888,1.8867,1.8866,1.8906,1.8911,1.8915,1.8957,1.8929,1.8931,1.8933,1.9027,1.9029,1.903,0,0,0,0,0,0,1.8789,1.8795,1.885,1.8825,1.8832,1.8846,1.886,1.8862,1.8872,1.8889,1.8891,1.8875,1.8906,1.8912,1.8943,1.8958,1.8932,1.8935,1.9026,1.9028,1.9029,1.904,0,0,0,0,0,0,1.8787,1.8794,1.8807,1.8826,1.8834,1.8875,1.8861,1.8863,1.8876,1.8875,1.8897,1.8899,1.8906,1.8939,1.8945,1.8961,1.8937,1.9025,1.9027,1.9029,1.9038,1.9041,1.9044,0,0,0,0,0,1.8784,1.8809,1.8807,1.8814,1.8849,1.8876,1.8881,1.8886,1.8877,1.889,1.8901,1.8899,1.8956,1.8942,1.8949,1.8966,1.9024,1.9026,1.9029,1.9037,1.9041,1.9044,0,0,0,0,0,0,1.8792,1.8811,1.881,1.8841,1.8857,1.8875,1.8891,1.889,1.891,1.8908,1.8916,1.8921,1.8952,1.8963,1.8947,1.9001,1.8989,1.8993,1.8992,1.8996,1.9,1.8996,1.8939,0,0,0,0,0,1.8797,1.8817,1.8833,1.8859,1.8867,1.8878,1.889,1.8893,1.891,1.8917,1.893,1.8948,1.897,1.8984,1.9005,1.904,1.9045,1.9055,1.9059,1.9061,1.9064,1.9084,1.9088,1.9038,1.9038,1.9038,0,0,1.8809,1.8822,1.8834,1.8861,1.8874,1.8894,1.8884,1.8906,1.8922,1.8921,1.895,1.8961,1.8981,1.9014,1.903,1.9024,1.9079,1.9064,1.9066,1.9068,1.9086,1.9091,1.9095,1.9039,1.9039,1.9039,0,0,1.884,1.8852,1.8875,1.8887,1.8906,1.8913,1.8919,1.8938,1.8944,1.8974,1.8973,1.8993,1.9031,1.9045,1.9057,1.9095,1.9094,1.9102,1.9118,1.9137,1.9141,1.9144,1.9157,1.9162,1.9105,1.9105,1.9105,0,1.8852,1.8882,1.8887,1.8909,1.8922,1.8921,1.8945,1.8957,1.8983,1.8992,1.8985,1.9032,1.9046,1.9082,1.9091,1.9102,1.9109,1.9099,1.914,1.9143,1.9147,1.9159,1.9164,1.9106,1.9106,1.9106,1.9106,0,1.8896,1.8917,1.8933,1.8956,1.8971,1.8994,1.9004,1.9018,1.902,1.9029,1.9059,1.9076,1.91,1.9109,1.9112,1.9147,1.9142,1.9138,1.9126,1.9152,1.9164,1.9169,1.9107,1.9107,1.9107,1.9106,0,0,1.8932,1.8957,1.8963,1.8974,1.8995,1.9012,1.9036,1.9058,1.9071,1.9089,1.9109,1.9141,1.9137,1.9151,1.9156,1.9172,1.9201,1.9166,1.9166,1.9171,1.9239,1.9242,1.9247,1.92,1.9201,1.9202,1.9238,0,1.8964,1.9004,1.901,1.9046,1.9066,1.9066,1.9087,1.9103,1.9112,1.9131,1.9142,1.9164,1.9157,1.9165,1.9182,1.9194,1.9214,1.9191,1.922,1.9221,1.9213,1.9254,1.9257,1.9289,1.9242,1.9243,1.9244,0,1.9007,1.9025,1.9063,1.9081,1.909,1.9108,1.913,1.9148,1.9166,1.9172,1.9187,1.919,1.9216,1.9204,1.924,1.9224,1.9236,1.9244,1.9246,1.9248,1.9233,1.9256,1.93,1.9304,1.9251,1.9251,1.925,0,1.9029,1.9062,1.9089,1.9098,1.9121,1.9134,1.9144,1.9162,1.9175,1.9195,1.9204,1.9227,1.9239,1.9257,1.9266,1.9257,1.9302,1.929,1.9308,1.9307,1.9316,1.9315,1.9361,1.9326,1.9326,1.9326,1.9325,0,1.9064,1.9087,1.9099,1.9115,1.9142,1.9149,1.9175,1.9185,1.9201,1.922,1.9223,1.9241,1.9253,1.9273,1.9281,1.931,1.9316,1.9321,1.9323,1.932,1.932,1.9328,1.9326,1.9327,1.9327,1.9326,1.9326,0,1.9091,1.9101,1.913,1.9149,1.9154,1.9173,1.919,1.9206,1.9215,1.924,1.9246,1.9261,1.9285,1.9296,1.9327,1.9332,1.9365,1.9365,1.9358,1.9358,1.9374,1.9372,1.9426,1.9434,1.9394,1.9395,1.9395,0,1.9112,1.913,1.9151,1.9163,1.9173,1.9194,1.9207,1.9216,1.923,1.9253,1.9267,1.9291,1.9311,1.935,1.9364,1.9387,1.9388,1.9406,1.9392,1.9389,1.9388,1.9386,1.9388,1.9408,1.9408,1.9408,1.9409,0,1.9149,1.9153,1.9171,1.9192,1.9208,1.9225,1.9242,1.9252,1.9264,1.928,1.9304,1.9319,1.935,1.9374,1.9398,1.941,1.9412,1.9413,1.9418,1.9415,1.941,1.9412,1.9363,1.9411,1.9411,1.9411,1.9411,1.9411,1.9173,1.9189,1.9206,1.9227,1.924,1.9256,1.9272,1.9284,1.9303,1.9328,1.9333,1.9358,1.9378,1.941,1.9423,1.9445,1.9441,1.9448,1.945,1.9451,1.9452,1.9407,1.9449,1.9449,1.9449,1.9449,1.9449,0,1.9209,1.922,1.9239,1.9262,1.9279,1.9278,1.9297,1.9312,1.9334,1.9351,1.937,1.9398,1.9422,1.9438,1.9462,1.9476,1.9477,1.9482,1.9481,1.9484,1.9454,1.9447,1.9481,1.9481,1.9481,1.9481,1.9481,1.9481,1.9229,1.9256,1.9262,1.9295,1.9307,1.9331,1.9341,1.9356,1.937,1.9401,1.942,1.943,1.9448,1.9473,1.9495,1.95,1.9508,1.9513,1.9517,1.9489,1.9486,1.9482,1.9476,1.9515,1.9515,1.9544,1.9545,1.9545]},{"header":{"parameterUnit":"m.s-1","parameterCategory":1,"la1":30.2991,"la2":30.254,"lo1":-89.0895,"lo2":-89.0444,"dy":0.0017,"dx":0.0017,"nx":28,"ny":28,"refTime":"2023-08-08T03:00:00:Z","depth":0,"parameterNumber":3,"parameterNumberName":"V-component_of_WINDS"},"data":[0,0,0,0,0,0,0,0,0,0,0,0,0,0,0,0,0,0,0,0,0,0,0,0,0,0,0,0,0,0,0,0,0,0,0,0,0,0,0,0,0,0,0,0,0,0,0,0,0,0,0,0,0,0,0,0,0,0,3.7425,3.7425,0,3.7407,3.7407,3.7406,3.7403,3.7403,3.7403,3.7403,3.7381,3.7381,3.738,0,0,0,0,0,0,0,0,0,0,0,0,0,3.7453,3.7453,3.7425,3.7425,3.7424,3.7407,3.7407,3.7406,3.7403,3.7403,3.7403,3.7403,3.7382,3.7381,3.738,0,0,0,0,0,0,0,0,0,0,0,0,0,3.7438,3.7452,3.7425,3.7421,3.742,3.7407,3.7407,3.7406,3.7403,3.7403,3.7403,3.7403,3.7382,3.7381,3.738,3.7369,0,0,3.7376,3.7376,0,0,0,0,0,0,0,0,3.7439,3.7437,3.7421,3.7421,3.742,3.7407,3.7409,3.7394,3.7402,3.7409,3.7403,3.7403,3.739,3.7388,3.7384,3.7368,3.7367,3.7376,3.7376,3.7375,3.7375,0,0,0,0,0,0,0,3.744,3.7438,3.7418,3.7421,3.742,3.7418,3.7417,3.7406,3.7398,3.7408,3.7408,3.7406,3.7389,3.7385,3.7383,3.7366,3.7376,3.7375,3.7375,3.7374,3.734,3.7339,0,0,0,0,0,0,3.7443,3.7439,3.7418,3.7417,3.7431,3.7418,3.7416,3.7411,3.7398,3.7397,3.7406,3.7406,3.7387,3.7385,3.7383,3.7369,3.7375,3.7374,3.7374,3.734,3.734,3.7339,0,0,0,0,0,0,3.7443,3.7441,3.7419,3.7428,3.7425,3.7417,3.7412,3.7411,3.7406,3.7397,3.7395,3.7403,3.7387,3.7384,3.7372,3.7368,3.7374,3.7373,3.734,3.734,3.734,3.7341,0,0,0,0,0,0,3.7444,3.7441,3.7437,3.7428,3.7425,3.741,3.7412,3.741,3.7405,3.7405,3.7393,3.7392,3.7387,3.7374,3.7371,3.7366,3.7372,3.7341,3.734,3.734,3.7341,3.734,3.734,0,0,0,0,0,3.7445,3.7438,3.7437,3.7435,3.742,3.741,3.7408,3.7403,3.7405,3.74,3.7394,3.7392,3.7369,3.7373,3.737,3.7364,3.7341,3.734,3.734,3.7341,3.7341,3.734,0,0,0,0,0,0,3.7446,3.7437,3.7436,3.7426,3.7419,3.7409,3.7404,3.7402,3.7394,3.7394,3.7387,3.7385,3.7373,3.7368,3.7372,3.7353,3.7355,3.7354,3.7357,3.7356,3.7356,3.7357,3.7371,0,0,0,0,0,3.7445,3.7439,3.743,3.7422,3.7419,3.7412,3.7407,3.7404,3.7396,3.7393,3.7386,3.7377,3.7368,3.7362,3.7353,3.734,3.7337,3.7335,3.7334,3.7334,3.7333,3.7325,3.7324,3.7337,3.7337,3.7337,0,0,3.7443,3.7437,3.7433,3.7422,3.7416,3.7409,3.7409,3.7401,3.7395,3.7391,3.738,3.7374,3.7364,3.7352,3.7346,3.7347,3.7329,3.7333,3.7333,3.7332,3.7325,3.7323,3.7322,3.7337,3.7337,3.7337,0,0,3.7436,3.7431,3.7423,3.7418,3.7409,3.7405,3.7403,3.7394,3.739,3.7379,3.7376,3.7368,3.7352,3.7345,3.7339,3.7329,3.7327,3.7326,3.7323,3.7316,3.7315,3.7314,3.731,3.7308,3.7325,3.7325,3.7325,0,3.7434,3.7423,3.7419,3.7411,3.7406,3.7404,3.7395,3.739,3.7378,3.7374,3.7375,3.7356,3.7349,3.7335,3.7332,3.7328,3.7325,3.7327,3.7315,3.7314,3.7313,3.7309,3.7308,3.7325,3.7325,3.7325,3.7325,0,3.7421,3.7414,3.7408,3.7399,3.7393,3.7385,3.7379,3.7373,3.7371,3.7366,3.7354,3.7346,3.7335,3.7331,3.7328,3.7316,3.7317,3.7317,3.7319,3.7312,3.7308,3.7307,3.7325,3.7325,3.7325,3.7325,0,0,3.7413,3.7402,3.74,3.7396,3.7386,3.738,3.7371,3.7362,3.7357,3.7349,3.7341,3.7328,3.7327,3.7321,3.7317,3.7311,3.7302,3.7311,3.7311,3.7309,3.7288,3.7289,3.7287,3.7301,3.7301,3.73,3.7289,0,3.7405,3.7391,3.7387,3.7374,3.7367,3.7364,3.7357,3.7349,3.7344,3.7337,3.7331,3.7321,3.7322,3.7318,3.7312,3.7305,3.7298,3.7306,3.7292,3.7292,3.7295,3.7285,3.7285,3.7275,3.7288,3.7287,3.7287,0,3.7392,3.7385,3.7372,3.7364,3.7361,3.7354,3.7345,3.7338,3.7329,3.7326,3.7319,3.7315,3.7305,3.7308,3.7293,3.7298,3.7293,3.7288,3.7288,3.7286,3.7289,3.7283,3.7272,3.727,3.7285,3.7285,3.7285,0,3.7388,3.7375,3.7366,3.7362,3.7352,3.7347,3.7342,3.7334,3.7328,3.732,3.7316,3.7306,3.73,3.7292,3.7286,3.7288,3.7271,3.7273,3.7268,3.7268,3.7264,3.7264,3.7252,3.7261,3.7261,3.7261,3.7261,0,3.7378,3.737,3.7363,3.7358,3.7348,3.7344,3.7334,3.7329,3.7322,3.7314,3.7311,3.7304,3.7296,3.7287,3.7282,3.727,3.7268,3.7264,3.7263,3.7264,3.7265,3.726,3.7261,3.726,3.726,3.726,3.7261,0,3.7371,3.7367,3.7356,3.7348,3.7345,3.7339,3.7331,3.7325,3.732,3.731,3.7307,3.7299,3.7289,3.7282,3.7268,3.7265,3.7252,3.7251,3.7255,3.7255,3.7249,3.725,3.7233,3.723,3.7241,3.7241,3.7241,0,3.7365,3.7359,3.735,3.7346,3.7341,3.7333,3.7328,3.7323,3.7317,3.7307,3.7301,3.7291,3.7283,3.7266,3.7258,3.7247,3.7246,3.724,3.7244,3.7246,3.7245,3.7245,3.7245,3.724,3.724,3.724,3.724,0,3.7355,3.7353,3.7346,3.7338,3.7332,3.7325,3.7318,3.7314,3.7307,3.73,3.7291,3.7284,3.7271,3.726,3.7249,3.7242,3.7239,3.7239,3.7237,3.7238,3.7241,3.7239,3.7254,3.7239,3.7239,3.7239,3.7239,3.7239,3.7348,3.7343,3.7336,3.7328,3.7322,3.7316,3.7309,3.7304,3.7296,3.7285,3.7283,3.7272,3.7263,3.7247,3.7241,3.7232,3.7232,3.7229,3.7229,3.7228,3.7228,3.7243,3.723,3.723,3.723,3.723,3.723,0,3.7337,3.7333,3.7326,3.7317,3.731,3.7309,3.7301,3.7296,3.7287,3.7279,3.7271,3.7259,3.7249,3.724,3.7229,3.7224,3.7222,3.7221,3.7221,3.722,3.7228,3.7231,3.7222,3.7222,3.7222,3.7222,3.7222,3.7222,3.7331,3.7322,3.7319,3.7307,3.7302,3.7292,3.7288,3.7282,3.7275,3.7263,3.7255,3.725,3.7241,3.723,3.722,3.7218,3.7213,3.7213,3.721,3.7218,3.7219,3.722,3.7222,3.7212,3.7212,3.7202,3.7202,3.7202]}]]